Location: Mahannah Oil Field
(37.4664°N, 96.6003°W)
Time: 02:07:09
(UTC+00:00)

Tiros 1 despin weight - Pass Details

Date: 28 January 2021
Orbit: 593 x 642 km, 48.2° (Epoch: 25 February)

Event Time Altitude Azimuth Distance (km) Brightness Sun altitude
Rises 22:47:01 0° 303° (WNW) 2,879 ? 9.7°
Reaches altitude 10° 22:49:43 10° 318° (NW) 1,964 ? 9.2°
Maximum altitude 22:53:22 24° 12° (NNE) 1,274 ? 8.6°
Drops below altitude 10° 22:56:59 10° 66° (ENE) 1,939 ? 8.0°
Sets 22:59:38 0° 81° (E) 2,834 ? 7.5°
